Home   Weather   Independence   Past weeks

Flag for USA Past Weather in Independence, Missouri, USA — Yesterday and Last 2 Weeks

Now
91 °F

Partly sunny.


Feels Like: 103 °F
Forecast: 71 / 92 °F
Wind: 7 mph from Southeast

Location: Lee's Summit Municipal Airport

Current Time: Jul 25, 2017 at 4:06:53 pm

Latest Report: Jul 25, 2017 at 2:53 pm


Visibility: 10 mi

Pressure: 30.04 "Hg

Humidity: 61%

Dew Point: 76 °F

Location of IndependenceLocation

Past Weather in Independence — Graph

°F

Independence Temperature Yesterday

Maximum temperature yesterday: 86 °F (at 2:53 pm)
Minimum temperature yesterday: 71 °F (at 5:53 am)
Average temperature yesterday: 78 °F

High & Low Weather Summary for the Past Weeks

 TemperatureHumidityPressure
High99 °F (Jul 22, 4:53 pm)100% (Jul 13, 10:42 pm)30.19 "Hg (Jul 13, 10:42 pm)
Low70 °F (Jul 16, 3:53 am)37% (Jul 17, 3:53 pm)29.75 "Hg (Jul 22, 5:53 pm)
Average83 °F72%29.98 "Hg
* Reported Jul 10 2:53 pm — Jul 25 2:53 pm, Independence. Weather by CustomWeather, © 2017

Note: Actual official high and low records may vary slightly from our data, if they occured in-between our weather recording intervals... More about our weather records

Advertising

Independence Weather History for the Previous 24 Hours

Scroll right to see more
 ConditionsComfort  
Time TempWeatherWind HumidityBarometerVisibility
2:53 pm
Tue, Jul 25
91 °FPartly sunny.7 mph61%30.04 "Hg10 mi
1:53 pm90 °FSunny.7 mph61%30.04 "Hg10 mi
12:53 pm89 °FSunny.5 mph61%30.04 "Hg10 mi
11:53 am87 °FSunny.3 mph65%30.05 "Hg10 mi
10:53 am84 °FSunny.5 mph70%30.06 "Hg10 mi
9:53 am81 °FSunny.7 mph72%30.06 "Hg10 mi
8:53 am78 °FSunny.7 mph74%30.06 "Hg10 mi
7:53 am75 °FPassing clouds.7 mph79%30.06 "Hg10 mi
6:53 am72 °FSunny.6 mph84%30.05 "Hg10 mi
5:53 am72 °FClear.6 mph84%30.03 "Hg10 mi
4:53 am72 °FClear.7 mph84%30.03 "Hg10 mi
3:53 am73 °FClear.8 mph81%30.02 "Hg10 mi
2:53 am71 °FClear.7 mph87%30.02 "Hg10 mi
1:53 am73 °FClear.7 mph84%30.03 "Hg10 mi
12:53 am73 °FClear.6 mph88%30.03 "Hg10 mi
11:53 pm
Mon, Jul 24
73 °FClear.6 mph88%30.01 "Hg10 mi
10:53 pm74 °FClear.7 mph85%30.00 "Hg10 mi
9:53 pm76 °FClear.6 mph82%29.98 "Hg10 mi
8:53 pm77 °FClear.7 mph79%29.96 "Hg10 mi
7:53 pm81 °FSunny.6 mph67%29.96 "Hg10 mi
6:53 pm84 °FSunny.8 mph59%29.96 "Hg10 mi
5:53 pm85 °FSunny.9 mph57%29.96 "Hg10 mi
4:53 pm85 °FSunny.6 mph57%29.96 "Hg10 mi
Weather by CustomWeather, © 2017

See weather overviewHow to use our weather pages